CES126 ZBAA-ZSHC

Flight info

Callsign CES126
Flight time N/A
Altitude 39100
Route ELKUR7X ELKUR W40 YQG W142 DALIM A593 DPX A470 OF W95 SAPIN A470 IGRAT IGRAT91
Aircraft A346/H-SDE2E3FGHIJ3J4J5M1RWXY/LB1D1

Departure

Time 2026-05-07 13:40
Airport Beijing Capital International Airport (ZBAA)

Arrival

Time N/A
Airport Hangzhou Xiaoshan International Airport (ZSHC)
Time Latitude Longitude Altitude Speed Heading
2026-05-07 13:11 40.06670 116.60907 129 ft 0 kts 263°
2026-05-07 13:24 40.06670 116.60916 132 ft 4 kts 263°
2026-05-07 13:24 40.06674 116.60951 132 ft 3 kts 263°
2026-05-07 13:25 40.06675 116.60979 132 ft 4 kts 279°
2026-05-07 13:25 40.06668 116.61004 132 ft 4 kts 312°
2026-05-07 13:25 40.06650 116.61019 128 ft 4 kts 343°
2026-05-07 13:25 40.06624 116.61025 130 ft 4 kts 353°
2026-05-07 13:26 40.06609 116.61027 129 ft 0 kts 353°
2026-05-07 13:26 40.06609 116.61028 132 ft 0 kts 353°
2026-05-07 13:32 40.06618 116.61026 132 ft 5 kts 353°
2026-05-07 13:32 40.06682 116.61016 127 ft 13 kts 353°
2026-05-07 13:32 40.06798 116.60998 126 ft 14 kts 353°
2026-05-07 13:32 40.06874 116.60986 130 ft 12 kts 353°
2026-05-07 13:33 40.06931 116.60923 130 ft 13 kts 273°
2026-05-07 13:33 40.06919 116.60788 132 ft 16 kts 263°
2026-05-07 13:33 40.06904 116.60624 132 ft 20 kts 263°
2026-05-07 13:33 40.06889 116.60462 132 ft 19 kts 263°
2026-05-07 13:34 40.06873 116.60286 127 ft 16 kts 263°
2026-05-07 13:34 40.06863 116.60173 128 ft 3 kts 263°
2026-05-07 13:34 40.06862 116.60163 129 ft 2 kts 263°
2026-05-07 13:35 40.06859 116.60128 132 ft 6 kts 263°
2026-05-07 13:35 40.06837 116.60063 130 ft 9 kts 209°
2026-05-07 13:35 40.06761 116.60061 128 ft 13 kts 174°
2026-05-07 13:35 40.06658 116.60076 128 ft 17 kts 173°
2026-05-07 13:36 40.06529 116.60097 125 ft 20 kts 173°
2026-05-07 13:36 40.06378 116.60120 130 ft 23 kts 173°
2026-05-07 13:36 40.06213 116.60146 130 ft 24 kts 173°
2026-05-07 13:36 40.06044 116.60173 130 ft 24 kts 173°
2026-05-07 13:37 40.05877 116.60199 132 ft 22 kts 173°
2026-05-07 13:37 40.05782 116.60214 132 ft 11 kts 173°
2026-05-07 13:37 40.05743 116.60217 125 ft 4 kts 194°
2026-05-07 13:37 40.05724 116.60184 132 ft 6 kts 263°
2026-05-07 13:38 40.05718 116.60108 132 ft 10 kts 263°
2026-05-07 13:38 40.05716 116.60010 129 ft 10 kts 299°
2026-05-07 13:38 40.05753 116.59982 124 ft 0 kts 355°
2026-05-07 13:39 40.05834 116.59970 130 ft 39 kts 353°
2026-05-07 13:39 40.06362 116.59887 129 ft 111 kts 353°
2026-05-07 13:39 40.07332 116.59732 131 ft 169 kts 352°
2026-05-07 13:39 40.08604 116.59523 524 ft 189 kts 353°
2026-05-07 13:40 40.09906 116.59337 1340 ft 188 kts 353°
2026-05-07 13:40 40.11194 116.59175 2225 ft 183 kts 353°
2026-05-07 13:40 40.12456 116.59007 2959 ft 186 kts 352°
2026-05-07 13:40 40.13789 116.58790 3510 ft 199 kts 352°
2026-05-07 13:41 40.15203 116.58563 3951 ft 217 kts 352°
2026-05-07 13:41 40.16771 116.58295 4419 ft 237 kts 352°
2026-05-07 13:41 40.18472 116.58006 5012 ft 254 kts 352°
2026-05-07 13:41 40.20264 116.57712 5899 ft 260 kts 352°
2026-05-07 13:42 40.22075 116.57549 6869 ft 264 kts
2026-05-07 13:42 40.23805 116.58377 7790 ft 271 kts 32°
2026-05-07 13:42 40.25086 116.60212 8766 ft 281 kts 59°
2026-05-07 13:42 40.25624 116.62704 9754 ft 289 kts 79°
2026-05-07 13:43 40.25843 116.65352 10650 ft 297 kts 81°
2026-05-07 13:43 40.26061 116.68127 11260 ft 314 kts 80°
2026-05-07 13:43 40.26304 116.71063 11796 ft 333 kts 80°
2026-05-07 13:43 40.26570 116.74159 12337 ft 351 kts 79°
2026-05-07 13:44 40.26855 116.77428 12875 ft 369 kts 79°
2026-05-07 13:44 40.27150 116.80818 13698 ft 377 kts 79°
2026-05-07 13:44 40.27446 116.84259 14575 ft 382 kts 79°
2026-05-07 13:44 40.27746 116.87759 15497 ft 387 kts 78°
2026-05-07 13:45 40.27948 116.91323 16323 ft 398 kts 88°
2026-05-07 13:45 40.27257 116.94906 17105 ft 416 kts 112°
2026-05-07 13:45 40.25504 116.97958 17957 ft 427 kts 137°
2026-05-07 13:45 40.22954 116.99979 18707 ft 434 kts 161°
2026-05-07 13:46 40.19993 117.00675 19381 ft 435 kts 181°
2026-05-07 13:46 40.16970 117.00583 20197 ft 435 kts 186°
2026-05-07 13:46 40.13925 117.00413 20937 ft 440 kts 185°
2026-05-07 13:46 40.10843 117.00341 21660 ft 446 kts 183°
2026-05-07 13:47 40.07722 117.00377 22386 ft 451 kts 182°
2026-05-07 13:47 40.04563 117.00493 23097 ft 456 kts 181°
2026-05-07 13:47 40.01375 117.00658 23773 ft 462 kts 181°
2026-05-07 13:47 39.98189 117.00851 24343 ft 467 kts 180°
2026-05-07 13:48 39.94933 117.01064 24939 ft 471 kts 180°
2026-05-07 13:48 39.91641 117.01285 25539 ft 475 kts 181°
2026-05-07 13:48 39.88320 117.01511 26050 ft 481 kts 181°
2026-05-07 13:48 39.84959 117.01740 26602 ft 486 kts 181°
2026-05-07 13:49 39.81568 117.01971 27177 ft 490 kts 181°